Regional Weather Roundup
Issued by NWS Midland/Odessa, TX

Skip options and go directly to product.
Home | Oldest Version | Previous Version | Current Version | All | Text Only | Save Text | Print | Product List | Glossary Off

Skip product version selection by date and time.   

985
ASUS44 KMAF 182210
RWRMAF
MIDLAND AREA WEATHER ROUNDUP
NATIONAL WEATHER SERVICE MIDLAND TX
400 PM CST THU DEC 18 2014

...IN SOUTHWEST TEXAS AND SOUTHEAST NEW MEXICO...

CITY           SKY/WX    TMP DP  RH WIND       PRES   REMARKS
ALPINE         MOSUNNY   60  30  31 SE8       30.11S
ANDREWS        FAIR      61  32  34 SW5       30.04F
ARTESIA        CLOUDY    57  34  41 SE10      30.03S
BIG SPRING     SUNNY     65  32  29 S3        30.06S
CARLSBAD       CLOUDY    61  34  36 SE8       30.01S
DRYDEN           N/A     63  41  44 NE3       30.01S
FORT STOCKTON  PTSUNNY   65  31  28 NE6       30.03F
GUAD PASS      NOT AVBL
HOBBS          SUNNY     59  32  36 CALM      30.05S
MARFA          PTSUNNY   57  28  33 S8        30.07F
MIDLAND AIRPK  MOSUNNY   63  34  34 NW3       30.04F
MIDLAND INTL   MOSUNNY   63  35  35 E5        30.03F
ODESSA         MOSUNNY   63  31  30 SW6       30.04F
PECOS          CLOUDY    64  32  30 NW3       30.02S
PRESIDIO       FAIR      63  31  29 CALM      30.01F
SEMINOLE       MOSUNNY   60  29  31 CALM      30.05S
SNYDER         MOSUNNY   60  32  35 NE5       30.06S
WINK           PTSUNNY   64  31  28 W5        30.01F
$$
...OTHER STATIONS IN TEXAS...

CITY           SKY/WX    TMP DP  RH WIND       PRES   REMARKS
ABILENE        PTSUNNY   60  37  42 N9        30.07R
AMARILLO       MOSUNNY   42  30  62 NE5       30.07S WCI  39
AUSTIN         CLOUDY    59  55  87 NE9       30.05S
BROWNSVILLE    CLOUDY    75  67  76 SE20      29.95S
CORPUS CHRISTI CLOUDY    75  67  76 SE14      29.96S
DALLAS FTW     CLOUDY    48  44  86 NW6       30.11R
DEL RIO        PTSUNNY   66  54  65 CALM      29.99F
EL PASO        CLOUDY    54  35  48 S3        30.05F
HOUSTON INT    CLOUDY    68  61  78 NE7       30.03S
LUBBOCK        PTSUNNY   56  30  37 CALM      30.04S
SAN ANGELO     CLOUDY    66  37  34 NE3       30.03F
SAN ANTONIO    CLOUDY    66  60  81 NE8       30.02F
WACO           CLOUDY    52  47  83 NE6       30.09S
WICHITA FALLS  NOT AVBL
$$
...OTHER LOCATIONS IN NEW MEXICO...

CITY           SKY/WX    TMP DP  RH WIND       PRES   REMARKS
ALAMAGORDO     CLOUDY    54  30  40 S6        30.05S
ALBUQUERQUE    PTSUNNY   43  27  53 N3        30.08F
CANNON AFB     PTSUNNY   54  19  25 W15       30.02F
CLOVIS         PTSUNNY   54  23  30 W6        30.02S
HOLLOMAN AFB   CLOUDY    54  30  39 CALM      30.03F
ROSWELL        CLOUDY    55  31  39 SE8       30.03S
RUIDOSO        CLOUDY    41  23  48 SW16G22   30.07S WCI  33
SANTA FE       CLOUDY    38  24  57 NW7       30.07R WCI  33
TRUTH OR CONSE LGT RAIN  45  37  73 S3        30.04S
TUCUMCARI      PTSUNNY   45  31  58 NE5       30.03R
$$

USA.gov is the U.S. government's official web portal to all federal, state and local government web resources and services.